Friday, May 25, 2018, 8:04 PM EDT
Back to Local

KAFN, Jaffrey Muni-silver Ranch

Location: Jaffrey, NH, United States Lat: 42.8
Local Time: 8:04 PM EDT ( 0:04 GMT) Lon: -72
Time Zone: US/Eastern Elev: 1040 ft

Show me the last for .
Show Decoded

2018-05-25 19:52 METAR KAFN 252352Z AUTO 27006KT 10SM CLR 27/08 A2979 RMK AO2 SLP088 T02670083
                 10306 20267 55001 =
2018-05-25 18:52 METAR KAFN 252252Z AUTO 26005KT 10SM CLR 27/07 A2979 RMK AO2 SLP087 T02720072 =
2018-05-25 17:52 METAR KAFN 252152Z AUTO 25008G16KT 210V280 10SM FEW085 BKN110 29/06 A2978 RMK
                 AO2 SLP086 T02940061 =
2018-05-25 16:52 METAR KAFN 252052Z AUTO 23013G19KT 10SM BKN110 29/06 A2980 RMK AO2 SLP089
                 T02940056 56016 =
2018-05-25 15:52 METAR KAFN 251952Z AUTO 22010G18KT 10SM BKN120 29/06 A2981 RMK AO2 SLP094
                 T02890056 =
2018-05-25 14:52 METAR KAFN 251852Z AUTO 25007G21KT 10SM CLR 29/06 A2983 RMK AO2 SLP101 T02890061
                 =
2018-05-25 13:52 METAR KAFN 251752Z AUTO 28012G19KT 10SM CLR 29/06 A2985 RMK AO2 SLP105 T02890056
                 10289 20150 56025 =
2018-05-25 12:52 METAR KAFN 251652Z AUTO 24012G24KT 10SM CLR 28/07 A2987 RMK AO2 SLP113 T02830067
                 =
2018-05-25 11:52 METAR KAFN 251552Z AUTO 27013G21KT 220V290 10SM CLR 27/09 A2990 RMK AO2 SLP124
                 T02720089 =
2018-05-25 10:52 METAR KAFN 251452Z AUTO 23008KT 180V260 10SM CLR 26/09 A2992 RMK AO2 SLP134
                 T02560094 58018 =
2018-05-25 09:52 METAR KAFN 251352Z AUTO 24007KT 10SM CLR 23/10 A2995 RMK AO2 SLP144 T02330100 =
2018-05-25 08:52 METAR KAFN 251252Z AUTO 17005KT 10SM CLR 18/11 A2997 RMK AO2 SLP151 T01830106 =
2018-05-25 07:52 METAR KAFN 251152Z AUTO 20008KT 10SM CLR 15/10 A2998 RMK AO2 SLP155 T01500100
                 10150 20117 58005 =
2018-05-25 06:52 METAR KAFN 251052Z AUTO 19008KT 10SM CLR 12/11 A2999 RMK AO2 SLP158 T01220106 $
                 =
2018-05-25 05:52 METAR KAFN 250952Z AUTO 20007KT 10SM CLR 12/10 A3000 RMK AO2 SLP161 T01170100 $
                 =
2018-05-25 04:52 METAR KAFN 250852Z AUTO 20005KT 10SM CLR 12/11 A2999 RMK AO2 SLP159 T01170106
                 56010 $ =
2018-05-25 03:52 METAR KAFN 250752Z AUTO 22005KT 10SM CLR 12/11 A3001 RMK AO2 SLP163 T01220106 $
                 =
2018-05-25 02:52 METAR KAFN 250652Z AUTO 21005KT 10SM CLR 13/11 A3001 RMK AO2 SLP166 T01330106 $
                 =
2018-05-25 01:52 METAR KAFN 250552Z AUTO 20007KT 10SM CLR 14/10 A3003 RMK AO2 SLP170 T01390100
                 10189 20117 58011 $ =
2018-05-25 00:52 METAR KAFN 250452Z AUTO 19006KT 10SM CLR 13/09 A3004 RMK AO2 SLP176 T01280089
                 402440072 $ =
2018-05-24 23:52 METAR KAFN 250352Z AUTO 22004KT 10SM CLR 15/07 A3005 RMK AO2 SLP179 T01500072 $
                 =
2018-05-24 22:52 METAR KAFN 250252Z AUTO 18006KT 10SM CLR 12/09 A3006 RMK AO2 SLP182 T01220094
                 50001 $ =
2018-05-24 21:52 METAR KAFN 250152Z AUTO 00000KT 10SM CLR 13/09 A3006 RMK AO2 SLP184 T01280089 $
                 =
2018-05-24 20:52 METAR KAFN 250052Z AUTO 00000KT 10SM CLR 15/09 A3006 RMK AO2 SLP182 T01500094 $
                 =

Support USWX by starting your Amazon purchase here.